| time (UTC) | temp F | wind direction | speed knots | gust knots | rain 1hr in | rain 24hr in | rain mn in | humidity % | barometer mb |
| 20260508014518 | 50 | 248 | 1.7 | 3.5 | 0.00 | 0.00 | 0.00 | 91 | 1013.0 |
| 20260508013518 | 50 | 270 | 1.7 | 3.5 | 0.00 | 0.00 | 0.00 | 91 | 1013.0 |
| 20260508012517 | 50 | 293 | 1.7 | 5.2 | 0.00 | 0.00 | 0.00 | 90 | 1013.1 |
| 20260508011517 | 51 | 293 | 1.7 | 3.5 | 0.00 | 0.00 | 0.00 | 89 | 1013.3 |
| 20260508010518 | 52 | 315 | 0.9 | 2.6 | 0.00 | 0.00 | 0.00 | 89 | 1013.4 |
| 20260508005518 | 52 | 293 | 1.7 | 2.6 | 0.00 | 0.00 | 0.00 | 89 | 1013.5 |
| 20260508004518 | 52 | 293 | 2.6 | 6.1 | 0.00 | 0.00 | 0.00 | 90 | 1013.5 |
| 20260508003518 | 52 | 248 | 1.7 | 3.5 | 0.00 | 0.00 | 0.00 | 90 | 1013.5 |
| 20260508002518 | 52 | 293 | 0.9 | 3.5 | 0.00 | 0.00 | 0.00 | 90 | 1013.6 |
| 20260508001517 | 52 | 293 | 1.7 | 3.5 | 0.00 | 0.00 | 0.00 | 89 | 1013.6 |
| 20260508000537 | 52 | 293 | 2.6 | 3.5 | 0.00 | 0.00 | 0.00 | 89 | 1013.6 |
| 20260507235517 | 52 | 315 | 1.7 | 3.5 | 0.00 | 0.00 | 0.00 | 89 | 1013.8 |
| 20260507234516 | 53 | 293 | 1.7 | 2.6 | 0.00 | 0.00 | 0.00 | 89 | 1013.8 |
| 20260507233516 | 53 | 293 | 0.9 | 2.6 | 0.00 | 0.00 | 0.00 | 88 | 1013.9 |
| 20260507232516 | 53 | 315 | 1.7 | 2.6 | 0.00 | 0.00 | 0.00 | 89 | 1014.0 |
| 20260507231538 | 53 | 293 | 1.7 | 3.5 | 0.00 | 0.00 | 0.00 | 88 | 1014.1 |
| 20260507230538 | 53 | 293 | 1.7 | 2.6 | 0.00 | 0.00 | 0.00 | 87 | 1014.2 |
| 20260507225518 | 54 | 315 | 0.9 | 3.5 | 0.00 | 0.00 | 0.00 | 87 | 1014.1 |
| 20260507224516 | 54 | 293 | 1.7 | 3.5 | 0.00 | 0.00 | 0.00 | 86 | 1014.1 |
| 20260507223518 | 55 | 338 | 1.7 | 3.5 | 0.00 | 0.00 | 0.00 | 86 | 1014.4 |
| 20260507222538 | 55 | 270 | 1.7 | 2.6 | 0.00 | 0.00 | 0.00 | 85 | 1014.3 |
| 20260507221538 | 56 | 248 | 0.9 | 1.7 | 0.00 | 0.00 | 0.00 | 84 | 1014.2 |
| 20260507220518 | 56 | 293 | 0.9 | 1.7 | 0.00 | 0.00 | 0.00 | 82 | 1014.2 |
| 20260507215559 | 57 | 0.0 | 1.7 | 0.00 | 0.00 | 0.00 | 82 | 1014.3 | |
| 20260507214538 | 58 | 0.0 | 0.9 | 0.00 | 0.00 | 0.00 | 82 | 1014.4 | |
| 20260507213538 | 58 | 135 | 0.9 | 1.7 | 0.00 | 0.00 | 0.00 | 81 | 1014.3 |
| 20260507212519 | 58 | 135 | 0.9 | 1.7 | 0.00 | 0.00 | 0.00 | 80 | 1014.2 |
| 20260507211518 | 59 | 113 | 0.9 | 2.6 | 0.00 | 0.00 | 0.00 | 80 | 1014.3 |
| 20260507210518 | 59 | 135 | 2.6 | 3.5 | 0.00 | 0.00 | 0.00 | 80 | 1014.2 |
| 20260507205539 | 59 | 135 | 2.6 | 6.1 | 0.00 | 0.00 | 0.00 | 79 | 1014.0 |
| 20260507204518 | 59 | 135 | 2.6 | 5.2 | 0.00 | 0.00 | 0.00 | 79 | 1014.0 |
| 20260507203518 | 60 | 135 | 3.5 | 7.0 | 0.00 | 0.00 | 0.00 | 78 | 1014.0 |
| 20260507202518 | 60 | 113 | 2.6 | 5.2 | 0.00 | 0.00 | 0.00 | 78 | 1013.7 |
| 20260507201518 | 60 | 135 | 2.6 | 4.3 | 0.00 | 0.00 | 0.00 | 78 | 1013.7 |
| 20260507200559 | 60 | 135 | 5.2 | 9.6 | 0.00 | 0.00 | 0.00 | 78 | 1013.7 |
| 20260507195518 | 60 | 135 | 3.5 | 7.0 | 0.00 | 0.00 | 0.00 | 77 | 1013.3 |
| 20260507194518 | 60 | 135 | 3.5 | 6.1 | 0.00 | 0.00 | 0.00 | 77 | 1013.0 |
| 20260507193558 | 61 | 135 | 3.5 | 7.0 | 0.00 | 0.00 | 0.00 | 76 | 1013.0 |
| 20260507192518 | 61 | 135 | 5.2 | 7.8 | 0.00 | 0.00 | 0.00 | 75 | 1012.7 |
| 20260507191517 | 61 | 135 | 5.2 | 8.7 | 0.00 | 0.00 | 0.00 | 75 | 1012.5 |
| 20260507190537 | 61 | 135 | 7.0 | 10.4 | 0.00 | 0.00 | 0.00 | 74 | 1012.5 |
| 20260507185518 | 62 | 135 | 7.0 | 11.3 | 0.00 | 0.00 | 0.00 | 74 | 1012.4 |
| 20260507184518 | 62 | 135 | 4.3 | 8.7 | 0.00 | 0.00 | 0.00 | 73 | 1012.1 |
| 20260507183517 | 62 | 135 | 4.3 | 7.8 | 0.00 | 0.00 | 0.00 | 73 | 1012.0 |
| 20260507182538 | 63 | 158 | 6.1 | 11.3 | 0.00 | 0.00 | 0.00 | 72 | 1011.7 |
| 20260507181517 | 63 | 135 | 3.5 | 9.6 | 0.00 | 0.00 | 0.00 | 71 | 1011.5 |
| 20260507180517 | 63 | 113 | 5.2 | 10.4 | 0.00 | 0.00 | 0.00 | 71 | 1011.4 |
| 20260507175517 | 63 | 135 | 7.0 | 12.2 | 0.00 | 0.00 | 0.00 | 70 | 1011.2 |
| 20260507174518 | 64 | 135 | 6.1 | 8.7 | 0.00 | 0.00 | 0.00 | 69 | 1011.2 |
| 20260507173518 | 64 | 135 | 7.0 | 12.2 | 0.00 | 0.00 | 0.00 | 69 | 1011.1 |
| 20260507172517 | 64 | 135 | 6.1 | 13.0 | 0.00 | 0.00 | 0.00 | 69 | 1011.0 |
| 20260507171517 | 65 | 135 | 7.8 | 12.2 | 0.00 | 0.00 | 0.00 | 67 | 1010.9 |
| 20260507170517 | 65 | 135 | 7.0 | 10.4 | 0.00 | 0.00 | 0.00 | 67 | 1010.8 |
| 20260507165517 | 66 | 113 | 6.1 | 10.4 | 0.00 | 0.00 | 0.00 | 66 | 1010.8 |
| 20260507164517 | 66 | 135 | 5.2 | 10.4 | 0.00 | 0.00 | 0.00 | 66 | 1010.8 |
| 20260507163517 | 66 | 135 | 7.0 | 13.0 | 0.00 | 0.00 | 0.00 | 65 | 1010.7 |
| 20260507162517 | 66 | 135 | 7.8 | 12.2 | 0.00 | 0.00 | 0.00 | 65 | 1010.7 |
| 20260507161518 | 66 | 113 | 7.0 | 12.2 | 0.00 | 0.00 | 0.00 | 66 | 1010.6 |
| 20260507160517 | 66 | 135 | 9.6 | 14.8 | 0.00 | 0.00 | 0.00 | 66 | 1010.4 |
| 20260507155517 | 66 | 135 | 8.7 | 13.9 | 0.00 | 0.00 | 0.00 | 65 | 1010.4 |
| 20260507154517 | 67 | 90 | 7.0 | 12.2 | 0.00 | 0.00 | 0.00 | 65 | 1010.6 |
| 20260507153517 | 67 | 113 | 7.0 | 12.2 | 0.00 | 0.00 | 0.00 | 65 | 1010.6 |
| 20260507152517 | 68 | 135 | 5.2 | 11.3 | 0.00 | 0.00 | 0.00 | 64 | 1010.6 |
| 20260507151518 | 68 | 135 | 8.7 | 14.8 | 0.00 | 0.00 | 0.00 | 60 | 1010.6 |
| 20260507150517 | 69 | 135 | 7.0 | 13.9 | 0.00 | 0.00 | 0.00 | 58 | 1010.9 |
| 20260507145517 | 69 | 180 | 8.7 | 14.8 | 0.00 | 0.00 | 0.00 | 61 | 1010.9 |
| 20260507144517 | 67 | 135 | 7.0 | 14.8 | 0.00 | 0.00 | 0.00 | 63 | 1010.8 |
| 20260507143517 | 67 | 158 | 7.8 | 13.9 | 0.00 | 0.00 | 0.00 | 63 | 1011.0 |
| 20260507142537 | 67 | 135 | 7.0 | 11.3 | 0.00 | 0.00 | 0.00 | 65 | 1011.1 |
| 20260507141517 | 68 | 158 | 6.1 | 11.3 | 0.00 | 0.00 | 0.00 | 63 | 1011.3 |
| 20260507140517 | 69 | 180 | 7.8 | 12.2 | 0.00 | 0.00 | 0.00 | 60 | 1011.4 |
| 20260507135517 | 70 | 180 | 9.6 | 15.6 | 0.00 | 0.00 | 0.00 | 59 | 1011.5 |
| 20260507134558 | 70 | 180 | 5.2 | 9.6 | 0.00 | 0.00 | 0.00 | 59 | 1011.6 |
| 20260507133517 | 70 | 180 | 8.7 | 15.6 | 0.00 | 0.00 | 0.00 | 59 | 1011.6 |
| 20260507132517 | 70 | 180 | 7.0 | 13.0 | 0.00 | 0.00 | 0.00 | 62 | 1011.7 |
| 20260507131517 | 70 | 203 | 7.0 | 11.3 | 0.00 | 0.00 | 0.00 | 62 | 1011.8 |
| 20260507130517 | 70 | 180 | 8.7 | 17.4 | 0.00 | 0.00 | 0.00 | 63 | 1012.1 |
| 20260507125537 | 68 | 158 | 13.0 | 24.3 | 0.00 | 0.00 | 0.00 | 63 | 1012.0 |
| 20260507124517 | 69 | 180 | 8.7 | 16.5 | 0.00 | 0.00 | 0.00 | 60 | 1012.0 |
| 20260507123517 | 69 | 180 | 7.0 | 13.0 | 0.00 | 0.00 | 0.00 | 58 | 1012.0 |
| 20260507122537 | 69 | 180 | 4.3 | 8.7 | 0.00 | 0.00 | 0.00 | 55 | 1012.0 |
| 20260507121516 | 70 | 225 | 2.6 | 6.1 | 0.00 | 0.00 | 0.00 | 52 | 1012.3 |
| 20260507120516 | 70 | 135 | 3.5 | 13.0 | 0.00 | 0.00 | 0.00 | 52 | 1012.4 |
| 20260507115517 | 71 | 180 | 4.3 | 10.4 | 0.00 | 0.00 | 0.00 | 52 | 1012.3 |
| 20260507114517 | 71 | 180 | 5.2 | 9.6 | 0.00 | 0.00 | 0.00 | 53 | 1012.4 |
| 20260507113517 | 70 | 158 | 2.6 | 7.0 | 0.00 | 0.00 | 0.00 | 53 | 1012.5 |
| 20260507112517 | 69 | 135 | 3.5 | 7.0 | 0.00 | 0.00 | 0.00 | 54 | 1012.7 |
| 20260507111517 | 69 | 158 | 5.2 | 8.7 | 0.00 | 0.00 | 0.00 | 54 | 1012.9 |
| 20260507110517 | 69 | 180 | 3.5 | 7.8 | 0.00 | 0.00 | 0.00 | 56 | 1013.0 |
| 20260507105516 | 68 | 45 | 3.5 | 7.8 | 0.00 | 0.00 | 0.00 | 55 | 1013.1 |
| 20260507104516 | 68 | 135 | 2.6 | 7.8 | 0.00 | 0.00 | 0.00 | 58 | 1013.2 |
| 20260507103637 | 68 | 68 | 5.2 | 8.7 | 0.00 | 0.00 | 0.00 | 59 | 1013.4 |
| 20260507102517 | 67 | 113 | 4.3 | 8.7 | 0.00 | 0.00 | 0.00 | 61 | 1013.6 |
| 20260507101517 | 66 | 90 | 3.5 | 7.8 | 0.00 | 0.00 | 0.00 | 62 | 1013.6 |
| 20260507100516 | 65 | 135 | 3.5 | 8.7 | 0.00 | 0.00 | 0.00 | 63 | 1013.7 |
| 20260507095517 | 66 | 68 | 5.2 | 9.6 | 0.00 | 0.00 | 0.00 | 64 | 1014.0 |
| 20260507094517 | 65 | 90 | 3.5 | 7.0 | 0.00 | 0.00 | 0.00 | 65 | 1013.9 |
| 20260507093516 | 65 | 90 | 3.5 | 7.8 | 0.00 | 0.00 | 0.00 | 66 | 1014.0 |
| 20260507092517 | 64 | 158 | 2.6 | 7.0 | 0.00 | 0.00 | 0.00 | 68 | 1014.2 |
| 20260507091516 | 64 | 158 | 2.6 | 7.0 | 0.00 | 0.00 | 0.00 | 67 | 1014.1 |
| 20260507090516 | 64 | 45 | 2.6 | 7.8 | 0.00 | 0.00 | 0.00 | 68 | 1014.0 |
| 20260507085516 | 64 | 135 | 2.6 | 6.1 | 0.00 | 0.00 | 0.00 | 70 | 1014.0 |
| 20260507084517 | 63 | 45 | 2.6 | 6.1 | 0.00 | 0.00 | 0.00 | 71 | 1013.9 |
| 20260507083516 | 63 | 68 | 3.5 | 7.0 | 0.00 | 0.00 | 0.00 | 71 | 1014.1 |
| 20260507082516 | 62 | 113 | 2.6 | 6.1 | 0.00 | 0.00 | 0.00 | 71 | 1014.2 |
| 20260507081536 | 62 | 23 | 0.9 | 3.5 | 0.00 | 0.00 | 0.00 | 72 | 1014.1 |
| 20260507080516 | 61 | 135 | 1.7 | 3.5 | 0.00 | 0.00 | 0.00 | 71 | 1014.2 |
| 20260507075536 | 61 | 23 | 1.7 | 3.5 | 0.00 | 0.00 | 0.00 | 71 | 1014.3 |
| 20260507074518 | 60 | 68 | 1.7 | 2.6 | 0.00 | 0.00 | 0.00 | 72 | 1014.4 |
| 20260507073519 | 59 | 90 | 1.7 | 2.6 | 0.00 | 0.00 | 0.00 | 74 | 1014.4 |
| 20260507072518 | 57 | 45 | 1.7 | 2.6 | 0.00 | 0.00 | 0.00 | 77 | 1014.4 |
| 20260507071518 | 56 | 45 | 0.9 | 2.6 | 0.00 | 0.00 | 0.00 | 78 | 1014.4 |
| 20260507070518 | 55 | 0 | 0.9 | 1.7 | 0.00 | 0.00 | 0.00 | 79 | 1014.3 |
| 20260507065518 | 54 | 23 | 1.7 | 2.6 | 0.00 | 0.00 | 0.00 | 81 | 1014.4 |
| 20260507064518 | 53 | 0.0 | 1.7 | 0.00 | 0.00 | 0.00 | 83 | 1014.4 | |
| 20260507063518 | 51 | 203 | 0.9 | 1.7 | 0.00 | 0.00 | 0.00 | 85 | 1014.1 |
| 20260507062540 | 50 | 203 | 0.9 | 1.7 | 0.00 | 0.00 | 0.00 | 87 | 1013.9 |
| 20260507061538 | 48 | 203 | 0.9 | 1.7 | 0.00 | 0.00 | 0.00 | 90 | 1013.9 |
| 20260507060539 | 47 | 315 | 0.9 | 1.7 | 0.00 | 0.00 | 0.00 | 90 | 1013.9 |
| 20260507055519 | 46 | 315 | 2.6 | 3.5 | 0.00 | 0.00 | 0.00 | 91 | 1013.8 |
| 20260507054518 | 45 | 315 | 1.7 | 3.5 | 0.00 | 0.00 | 0.00 | 92 | 1013.9 |
| 20260507053518 | 45 | 293 | 0.9 | 2.6 | 0.00 | 0.00 | 0.00 | 92 | 1013.8 |
| 20260507052518 | 44 | 293 | 0.9 | 2.6 | 0.00 | 0.00 | 0.00 | 92 | 1013.7 |
| 20260507051518 | 44 | 293 | 0.9 | 2.6 | 0.00 | 0.00 | 0.00 | 92 | 1013.5 |
| 20260507050518 | 44 | 293 | 0.9 | 2.6 | 0.00 | 0.00 | 0.00 | 92 | 1013.6 |
| 20260507045518 | 44 | 293 | 0.9 | 2.6 | 0.00 | 0.00 | 0.00 | 91 | 1013.4 |
| 20260507044518 | 44 | 315 | 1.7 | 3.5 | 0.00 | 0.00 | 0.00 | 92 | 1013.4 |
| 20260507043517 | 45 | 293 | 1.7 | 2.6 | 0.00 | 0.00 | 0.00 | 91 | 1013.5 |
| 20260507042538 | 45 | 0.0 | 1.7 | 0.00 | 0.00 | 0.00 | 91 | 1013.5 | |
| 20260507041538 | 45 | 293 | 0.9 | 1.7 | 0.00 | 0.00 | 0.00 | 91 | 1013.5 |
| 20260507040518 | 45 | 0.0 | 0.9 | 0.00 | 0.00 | 0.00 | 91 | 1013.6 | |
| 20260507035517 | 45 | 293 | 0.9 | 1.7 | 0.00 | 0.00 | 0.00 | 91 | 1013.5 |
| 20260507034518 | 45 | 293 | 0.9 | 2.6 | 0.00 | 0.00 | 0.00 | 91 | 1013.4 |
| 20260507033517 | 45 | 315 | 1.7 | 2.6 | 0.00 | 0.00 | 0.00 | 91 | 1013.5 |
| 20260507032518 | 45 | 315 | 1.7 | 3.5 | 0.00 | 0.00 | 0.00 | 91 | 1013.6 |
| 20260507031518 | 45 | 315 | 0.9 | 2.6 | 0.00 | 0.00 | 0.00 | 91 | 1013.5 |
| 20260507030518 | 45 | 315 | 0.9 | 1.7 | 0.00 | 0.00 | 0.00 | 91 | 1013.5 |
| 20260507025518 | 45 | 315 | 0.9 | 1.7 | 0.00 | 0.00 | 0.00 | 91 | 1013.4 |
| 20260507024538 | 45 | 293 | 1.7 | 3.5 | 0.00 | 0.00 | 0.00 | 91 | 1013.3 |
| 20260507023518 | 45 | 315 | 1.7 | 3.5 | 0.00 | 0.00 | 0.00 | 91 | 1013.3 |
| 20260507022517 | 45 | 315 | 2.6 | 4.3 | 0.00 | 0.00 | 0.00 | 91 | 1013.3 |
| 20260507021538 | 45 | 293 | 1.7 | 3.5 | 0.00 | 0.00 | 0.00 | 91 | 1013.4 |
| 20260507020517 | 45 | 293 | 2.6 | 3.5 | 0.00 | 0.00 | 0.00 | 90 | 1013.4 |
| 20260507015517 | 46 | 293 | 1.7 | 5.2 | 0.00 | 0.00 | 0.00 | 90 | 1013.5 |